Weather History for Ardmore Downtown, OK

Change the Weather History Date:

Friday, May 24, 2013

  Actual Average (KADM) Record (KADM)
Temperature  
Mean Temperature 72 °F -  
Max Temperature 80 °F 81 °F 95 °F (2005)
Min Temperature 64 °F 62 °F 59 °F (1999)
Cooling Degree Days 7    
Growing Degree Days 22 (Base 50)    
Moisture  
Dew Point 66 °F    
Average Humidity 80    
Maximum Humidity 94    
Minimum Humidity 65    
Precipitation  
Precipitation 0.01 in - - ()
Sea Level Pressure  
Sea Level Pressure 30.12 in    
Wind  
Wind Speed 7 mph (ESE)    
Max Wind Speed 14 mph    
Max Gust Speed 20 mph    
Visibility 10 miles    
Events Rain , Thunderstorm    
Averages and records for this station are not official NWS values.
T = Trace of Precipitation, MM = Missing Value Source: NWS Daily Summary

Daily Weather History Graph

Daily Weather History Graph

Search for Another Location

Airport:

Trip Planner

Search our weather history database for the weather conditions in past years. The results will help you decide how hot, cold, wet, or windy it might be!

Date:

Astronomy

May. 24, 2013 Rise Set
Actual Time 6:21 AM CDT 8:30 PM CDT
Civil Twilight 5:52 AM CDT 8:58 PM CDT
Nautical Twilight 5:18 AM CDT 9:33 PM CDT
Astronomical Twilight 4:40 AM CDT 10:10 PM CDT
Moon 8:14 PM CDT (5/24) 5:51 AM CDT (5/24)
Length of Visible Light 15h 05m
Length of Day
14h 09m
Full, 100% of the Moon is Illuminated
May 24
Full
May 24
Full
May 31
Last Quarter
Jun 8
New
Jun 16
First Quarter

Hourly Weather History & Observations

Time (CDT) Temp. Heat Index Dew Point Humidity Pressure Visibility Wind Dir Wind Speed Gust Speed Precip Events Conditions
12:15 AM 69.8 °F - 64.4 °F 83% 30.06 in 10.0 mi ENE 4.6 mph - N/A   Clear
12:35 AM 69.8 °F - 64.4 °F 83% 30.06 in 10.0 mi ENE 4.6 mph - N/A   Clear
12:55 AM 69.8 °F - 64.4 °F 83% 30.06 in 10.0 mi East 3.5 mph - N/A   Clear
1:15 AM 69.8 °F - 64.4 °F 83% 30.06 in 10.0 mi ENE 4.6 mph - N/A   Clear
1:35 AM 69.8 °F - 62.6 °F 78% 30.07 in 10.0 mi East 6.9 mph - N/A   Clear
1:55 AM 68.0 °F - 62.6 °F 83% 30.07 in 10.0 mi East 6.9 mph - N/A   Clear
2:15 AM 68.0 °F - 62.6 °F 83% 30.07 in 10.0 mi ENE 9.2 mph - N/A   Clear
2:35 AM 66.2 °F - 62.6 °F 88% 30.07 in 10.0 mi ENE 8.1 mph - N/A   Clear
2:55 AM 64.4 °F - 60.8 °F 88% 30.07 in 10.0 mi ENE 8.1 mph - N/A   Clear
3:15 AM 64.4 °F - 60.8 °F 88% 30.07 in 10.0 mi ENE 8.1 mph - N/A   Clear
3:35 AM 64.4 °F - 60.8 °F 88% 30.08 in 10.0 mi East 6.9 mph - N/A   Clear
3:55 AM 64.4 °F - 60.8 °F 88% 30.09 in 10.0 mi East 5.8 mph - N/A   Clear
4:15 AM 64.4 °F - 60.8 °F 88% 30.08 in 10.0 mi East 6.9 mph - N/A   Clear
4:35 AM 64.4 °F - 60.8 °F 88% 30.08 in 10.0 mi East 6.9 mph - N/A   Clear
4:55 AM 64.4 °F - 60.8 °F 88% 30.09 in 10.0 mi East 6.9 mph - N/A   Clear
5:15 AM 64.4 °F - 60.8 °F 88% 30.09 in 10.0 mi East 5.8 mph - N/A   Clear
5:35 AM 64.4 °F - 60.8 °F 88% 30.10 in 10.0 mi East 5.8 mph - N/A   Clear
5:55 AM 64.4 °F - 60.8 °F 88% 30.10 in 10.0 mi ENE 5.8 mph - N/A   Clear
6:15 AM 64.4 °F - 60.8 °F 88% 30.11 in 10.0 mi East 6.9 mph - N/A   Mostly Cloudy
6:35 AM 64.4 °F - 62.6 °F 94% 30.11 in 10.0 mi East 6.9 mph - N/A   Overcast
6:55 AM 64.4 °F - 62.6 °F 94% 30.11 in 10.0 mi East 4.6 mph - N/A   Overcast
7:15 AM 66.2 °F - 62.6 °F 88% 30.12 in 10.0 mi East 5.8 mph - N/A   Overcast
7:35 AM 68.0 °F - 62.6 °F 83% 30.13 in 10.0 mi East 5.8 mph - N/A   Scattered Clouds
7:55 AM 68.0 °F - 62.6 °F 83% 30.14 in 10.0 mi East 5.8 mph - N/A   Unknown
8:15 AM 69.8 °F - 64.4 °F 83% 30.14 in 10.0 mi East 6.9 mph - N/A   Unknown
8:35 AM 69.8 °F - 64.4 °F 83% 30.15 in 10.0 mi East 8.1 mph - N/A   Overcast
8:55 AM 71.6 °F - 64.4 °F 78% 30.15 in 10.0 mi ESE 8.1 mph - N/A   Scattered Clouds
9:15 AM 71.6 °F - 64.4 °F 78% 30.15 in 10.0 mi SE 10.4 mph - N/A   Scattered Clouds
9:35 AM 71.6 °F - 64.4 °F 78% 30.15 in 10.0 mi ESE 10.4 mph 17.3 mph N/A   Mostly Cloudy
9:55 AM 71.6 °F - 64.4 °F 78% 30.17 in 10.0 mi ESE 10.4 mph 16.1 mph N/A   Overcast
10:15 AM 73.4 °F - 66.2 °F 78% 30.16 in 10.0 mi SE 8.1 mph 19.6 mph N/A   Overcast
10:35 AM 73.4 °F - 66.2 °F 78% 30.16 in 10.0 mi SSE 10.4 mph 18.4 mph N/A   Overcast
10:55 AM 73.4 °F - 68.0 °F 83% 30.15 in 10.0 mi SSE 10.4 mph 17.3 mph N/A   Overcast
11:15 AM 73.4 °F - 68.0 °F 83% 30.16 in 10.0 mi SE 10.4 mph 16.1 mph N/A   Overcast
11:35 AM 73.4 °F - 68.0 °F 83% 30.15 in 10.0 mi SE 10.4 mph - N/A   Overcast
11:55 AM 77.0 °F - 68.0 °F 74% 30.17 in 10.0 mi SE 11.5 mph - N/A   Overcast
12:15 PM 77.0 °F - 68.0 °F 74% 30.17 in 10.0 mi SSE 11.5 mph - N/A   Overcast
12:35 PM 78.8 °F - 69.8 °F 74% 30.15 in 10.0 mi SSE 10.4 mph - N/A   Mostly Cloudy
12:55 PM 78.8 °F - 69.8 °F 74% 30.15 in 10.0 mi SSE 9.2 mph - N/A   Mostly Cloudy
1:15 PM 78.8 °F - 69.8 °F 74% 30.15 in 10.0 mi South 13.8 mph 18.4 mph N/A   Overcast
1:35 PM 78.8 °F - 69.8 °F 74% 30.14 in 10.0 mi SSE 10.4 mph - N/A   Overcast
1:55 PM 78.8 °F - 68.0 °F 69% 30.14 in 10.0 mi SSE 10.4 mph - N/A   Overcast
2:15 PM 80.6 °F 83.9 °F 69.8 °F 70% 30.14 in 10.0 mi SSE 11.5 mph - N/A   Overcast
2:35 PM 80.6 °F 83.9 °F 69.8 °F 70% 30.13 in 10.0 mi SE 9.2 mph - N/A   Mostly Cloudy
2:55 PM 78.8 °F - 68.0 °F 69% 30.13 in 10.0 mi SE 8.1 mph - N/A   Overcast
3:15 PM 80.6 °F 83.2 °F 68.0 °F 65% 30.12 in 10.0 mi SE 9.2 mph - N/A   Overcast
3:35 PM 80.6 °F 83.2 °F 68.0 °F 65% 30.11 in 10.0 mi SE 9.2 mph - N/A   Overcast
3:55 PM 80.6 °F 83.9 °F 69.8 °F 70% 30.10 in 10.0 mi ESE 8.1 mph - N/A   Overcast
4:15 PM 80.6 °F 83.9 °F 69.8 °F 70% 30.09 in 10.0 mi SE 9.2 mph - N/A   Overcast
4:35 PM 78.8 °F - 69.8 °F 74% 30.09 in 10.0 mi ESE 9.2 mph - N/A   Overcast
4:55 PM 80.6 °F 83.9 °F 69.8 °F 70% 30.09 in 10.0 mi ESE 11.5 mph - N/A   Mostly Cloudy
5:15 PM 78.8 °F - 69.8 °F 74% 30.09 in 10.0 mi ESE 8.1 mph - N/A   Scattered Clouds
5:35 PM 78.8 °F - 69.8 °F 74% 30.09 in 10.0 mi SE 11.5 mph - N/A   Scattered Clouds
5:55 PM 78.8 °F - 68.0 °F 69% 30.09 in 10.0 mi SE 9.2 mph - N/A   Scattered Clouds
6:15 PM 78.8 °F - 69.8 °F 74% 30.08 in 10.0 mi ESE 8.1 mph - N/A   Mostly Cloudy
6:35 PM 78.8 °F - 69.8 °F 74% 30.07 in 10.0 mi ESE 9.2 mph 17.3 mph N/A   Scattered Clouds
6:55 PM 78.8 °F - 69.8 °F 74% 30.08 in 10.0 mi SE 8.1 mph - N/A   Scattered Clouds
7:15 PM 77.0 °F - 68.0 °F 74% 30.09 in 10.0 mi SE 8.1 mph 17.3 mph N/A   Scattered Clouds
7:35 PM 77.0 °F - 68.0 °F 74% 30.09 in 10.0 mi SE 8.1 mph - N/A   Scattered Clouds
7:55 PM 77.0 °F - 69.8 °F 78% 30.10 in 10.0 mi SE 5.8 mph - N/A Thunderstorm Mostly Cloudy
8:15 PM 77.0 °F - 69.8 °F 78% 30.11 in 10.0 mi South 5.8 mph - N/A   Overcast
8:35 PM 73.4 °F - 66.2 °F 78% 30.12 in 10.0 mi Calm Calm - N/A Rain Light Rain
8:55 PM 71.6 °F - 64.4 °F 78% 30.12 in 7.0 mi SE 4.6 mph - N/A Rain Light Rain
9:15 PM 69.8 °F - 68.0 °F 94% 30.12 in 10.0 mi SE 3.5 mph - 0.01 in   Overcast
9:35 PM 71.6 °F - 68.0 °F 88% 30.12 in 10.0 mi SE 4.6 mph - 0.01 in   Mostly Cloudy
9:55 PM 73.4 °F - 68.0 °F 83% 30.13 in 10.0 mi ESE 4.6 mph - 0.01 in   Mostly Cloudy
10:15 PM 69.8 °F - 62.6 °F 78% 30.17 in 10.0 mi WSW 5.8 mph 18.4 mph N/A   Overcast
10:35 PM 68.0 °F - 62.6 °F 83% 30.17 in 10.0 mi SW 3.5 mph - N/A   Overcast
10:55 PM 68.0 °F - 62.6 °F 83% 30.15 in 10.0 mi South 3.5 mph - N/A   Overcast
11:15 PM 66.2 °F - 62.6 °F 88% 30.15 in 10.0 mi North 3.5 mph - N/A   Mostly Cloudy
11:35 PM 68.0 °F - 62.6 °F 83% 30.17 in 10.0 mi Calm Calm - N/A   Scattered Clouds
11:55 PM 68.0 °F - 62.6 °F 83% 30.17 in 10.0 mi SSE 4.6 mph - N/A   Mostly Cloudy